When you browse on this site, cookies collect data to enhance your experience and personalize the content and advertising you see.
Visit our Privacy Policy to learn more. By continuing to use the site, you agree to this use of cookies and data.
  • In Spain
  • List of Countries
  • For 7 days
  • Water Temperature
  • Weather Map
  • Weather Widgets
  • user-avatar
    Login

    Hourly Weather Gavriki

    Today, 24 August, Saturday

    Time Temperature Precipitation Wind Pressure Humidity
    00:00 +13°C° 0 mm 1 mps 755 mmHg 86%
    01:00 +13°C° 0 mm 1 mps 755 mmHg 87%
    02:00 +13°C° 0 mm 1 mps 754 mmHg 88%
    03:00 +13°C° 0 mm 1 mps 754 mmHg 89%
    04:00 +12°C° 0 mm 1 mps 754 mmHg 90%
    05:00 +12°C° 0 mm 2 mps 754 mmHg 91%
    06:00 +14°C° 0 mm 2 mps 754 mmHg 86%
    07:00 +16°C° 0 mm 2 mps 754 mmHg 82%
    08:00 +17°C° 0 mm 2 mps 754 mmHg 77%
    09:00 +19°C° 0 mm 3 mps 754 mmHg 73%
    10:00 +20°C° 0 mm 3 mps 754 mmHg 69%
    11:00 +21°C° 0 mm 4 mps 754 mmHg 64%
    12:00 +22°C° 0 mm 4 mps 754 mmHg 63%
    13:00 +22°C° 0 mm 4 mps 753 mmHg 62%
    14:00 +23°C° 0 mm 4 mps 753 mmHg 61%
    15:00 +24°C° 0 mm 3 mps 753 mmHg 65%
    16:00 +22°C° 0 mm 3 mps 753 mmHg 69%
    17:00 +23°C° 0 mm 2 mps 752 mmHg 73%
    18:00 +20°C° 0 mm 2 mps 752 mmHg 77%
    19:00 +19°C° 0 mm 2 mps 752 mmHg 82%
    20:00 +17°C° 0 mm 2 mps 753 mmHg 86%
    21:00 +16°C° 0 mm 2 mps 753 mmHg 89%
    22:00 +16°C° 0 mm 2 mps 753 mmHg 91%
    23:00 +15°C° 0 mm 2 mps 753 mmHg 94%

    Tomorrow, 25 August, Sunday

    Time Temperature Precipitation Wind Pressure Humidity
    00:00 +15°C° 0 mm 2 mps 753 mmHg 94%
    01:00 +15°C° 0 mm 1 mps 753 mmHg 94%
    02:00 +14°C° 0 mm 1 mps 753 mmHg 94%
    03:00 +14°C° 0 mm 1 mps 753 mmHg 94%
    04:00 +13°C° 0 mm 1 mps 754 mmHg 94%
    05:00 +13°C° 0 mm 1 mps 754 mmHg 95%
    06:00 +14°C° 0 mm 1 mps 754 mmHg 90%
    07:00 +16°C° 0 mm 2 mps 754 mmHg 85%
    08:00 +17°C° 0 mm 2 mps 754 mmHg 80%
    09:00 +18°C° 0 mm 2 mps 755 mmHg 74%
    10:00 +20°C° 0 mm 2 mps 755 mmHg 68%
    11:00 +21°C° 0 mm 2 mps 755 mmHg 61%
    12:00 +21°C° 0 mm 2 mps 755 mmHg 60%
    13:00 +21°C° 0 mm 2 mps 755 mmHg 58%
    14:00 +23°C° 0 mm 2 mps 755 mmHg 57%
    15:00 +21°C° 0 mm 2 mps 755 mmHg 61%
    16:00 +21°C° 0 mm 2 mps 755 mmHg 64%
    17:00 +22°C° 0 mm 1 mps 755 mmHg 68%
    18:00 +20°C° 0 mm 1 mps 755 mmHg 73%
    19:00 +18°C° 0 mm 1 mps 755 mmHg 78%
    20:00 +15°C° 0 mm 1 mps 755 mmHg 83%
    21:00 +14°C° 0 mm 1 mps 755 mmHg 85%
    22:00 +14°C° 0 mm 1 mps 755 mmHg 87%
    23:00 +13°C° 0 mm 1 mps 755 mmHg 89%

    Day after tomorrow, 26 August, Monday

    Time Temperature Precipitation Wind Pressure Humidity
    00:00 +13°C° 0 mm 1 mps 755 mmHg 90%
    01:00 +13°C° 0 mm 1 mps 755 mmHg 91%
    02:00 +12°C° 0 mm 1 mps 755 mmHg 91%
    03:00 +12°C° 0 mm 1 mps 755 mmHg 92%
    04:00 +12°C° 0 mm 1 mps 755 mmHg 92%
    05:00 +11°C° 0 mm 1 mps 755 mmHg 92%
    06:00 +12°C° 0 mm 0 mps 755 mmHg 87%
    07:00 +14°C° 0 mm 0 mps 755 mmHg 82%
    08:00 +16°C° 0 mm 0 mps 755 mmHg 77%
    09:00 +17°C° 0 mm 0 mps 755 mmHg 72%
    10:00 +19°C° 0 mm 0 mps 755 mmHg 67%
    11:00 +22°C° 0 mm 1 mps 755 mmHg 63%
    12:00 +23°C° 0 mm 1 mps 755 mmHg 60%
    13:00 +23°C° 0 mm 1 mps 754 mmHg 58%
    14:00 +23°C° 0 mm 2 mps 754 mmHg 56%
    15:00 +23°C° 0 mm 1 mps 754 mmHg 60%
    16:00 +23°C° 0 mm 1 mps 753 mmHg 65%
    17:00 +22°C° 0 mm 1 mps 753 mmHg 69%
    18:00 +20°C° 0 mm 1 mps 753 mmHg 74%
    19:00 +18°C° 0 mm 1 mps 752 mmHg 78%
    20:00 +15°C° 0 mm 1 mps 752 mmHg 82%
    21:00 +15°C° 0 mm 1 mps 752 mmHg 83%
    22:00 +15°C° 0 mm 1 mps 752 mmHg 83%
    23:00 +15°C° 0 mm 1 mps 752 mmHg 84%

    27 August, Tuesday

    Time Temperature Precipitation Wind Pressure Humidity
    00:00 +15°C° 0 mm 2 mps 752 mmHg 87%
    01:00 +15°C° 0 mm 2 mps 752 mmHg 89%
    02:00 +15°C° 0 mm 2 mps 751 mmHg 92%
    03:00 +14°C° 0 mm 2 mps 751 mmHg 93%
    04:00 +14°C° 0 mm 2 mps 751 mmHg 94%
    05:00 +14°C° 0 mm 2 mps 751 mmHg 95%
    06:00 +16°C° 0 mm 3 mps 751 mmHg 92%
    07:00 +17°C° 0 mm 3 mps 751 mmHg 88%
    08:00 +18°C° 0 mm 3 mps 751 mmHg 85%
    09:00 +20°C° 0 mm 4 mps 751 mmHg 79%
    10:00 +21°C° 0 mm 4 mps 751 mmHg 73%
    11:00 +22°C° 0 mm 4 mps 751 mmHg 67%
    12:00 +22°C° 0 mm 4 mps 751 mmHg 66%
    13:00 +22°C° 0 mm 5 mps 751 mmHg 65%
    14:00 +23°C° 0 mm 5 mps 751 mmHg 64%
    15:00 +22°C° 0 mm 4 mps 751 mmHg 65%
    16:00 +21°C° 0 mm 4 mps 751 mmHg 66%
    17:00 +21°C° 0 mm 4 mps 751 mmHg 68%
    18:00 +19°C° 0 mm 3 mps 751 mmHg 71%
    19:00 +17°C° 0 mm 3 mps 751 mmHg 74%
    20:00 +14°C° 0 mm 3 mps 751 mmHg 77%
    21:00 +13°C° 0 mm 3 mps 752 mmHg 81%
    22:00 +12°C° 0 mm 3 mps 752 mmHg 84%
    23:00 +13°C° 0 mm 2 mps 752 mmHg 87%

    28 August, Wednesday

    Time Temperature Precipitation Wind Pressure Humidity
    00:00 +12°C° 0 mm 2 mps 753 mmHg 90%
    01:00 +12°C° 0 mm 2 mps 753 mmHg 92%
    02:00 +10°C° 0 mm 2 mps 753 mmHg 94%
    03:00 +10°C° 0 mm 2 mps 753 mmHg 94%
    04:00 +9°C° 0 mm 2 mps 753 mmHg 94%
    05:00 +10°C° 0 mm 1 mps 754 mmHg 94%
    06:00 +11°C° 0 mm 1 mps 754 mmHg 87%
    07:00 +13°C° 0 mm 2 mps 754 mmHg 79%
    08:00 +14°C° 0 mm 2 mps 754 mmHg 72%
    09:00 +15°C° 0 mm 2 mps 754 mmHg 66%
    10:00 +17°C° 0 mm 3 mps 754 mmHg 60%
    11:00 +18°C° 0 mm 3 mps 754 mmHg 54%
    12:00 +18°C° 0 mm 3 mps 754 mmHg 53%
    13:00 +19°C° 0 mm 3 mps 754 mmHg 52%
    14:00 +19°C° 0 mm 3 mps 754 mmHg 51%
    15:00 +19°C° 0 mm 3 mps 754 mmHg 55%
    16:00 +18°C° 0 mm 2 mps 754 mmHg 60%
    17:00 +18°C° 0 mm 2 mps 753 mmHg 65%
    18:00 +16°C° 0 mm 2 mps 754 mmHg 68%
    19:00 +14°C° 0 mm 2 mps 754 mmHg 72%
    20:00 +12°C° 0 mm 1 mps 754 mmHg 76%
    21:00 +12°C° 0 mm 1 mps 754 mmHg 77%
    22:00 +11°C° 0 mm 1 mps 754 mmHg 77%
    23:00 +10°C° 0 mm 1 mps 754 mmHg 77%

    29 August, Thursday

    Time Temperature Precipitation Wind Pressure Humidity
    00:00 +10°C° 0 mm 1 mps 754 mmHg 76%
    01:00 +9°C° 0 mm 1 mps 754 mmHg 76%
    02:00 +9°C° 0 mm 1 mps 754 mmHg 75%
    03:00 +8°C° 0 mm 1 mps 754 mmHg 75%
    04:00 +8°C° 0 mm 1 mps 754 mmHg 75%
    05:00 +6°C° 0 mm 0 mps 755 mmHg 75%
    06:00 +8°C° 0 mm 0 mps 755 mmHg 70%
    07:00 +11°C° 0 mm 1 mps 754 mmHg 66%
    08:00 +13°C° 0 mm 1 mps 754 mmHg 61%
    09:00 +15°C° 0 mm 1 mps 754 mmHg 57%
    10:00 +16°C° 0 mm 1 mps 754 mmHg 53%
    11:00 +19°C° 0 mm 1 mps 754 mmHg 49%
    12:00 +20°C° 0 mm 1 mps 754 mmHg 49%
    13:00 +20°C° 0 mm 1 mps 754 mmHg 50%
    14:00 +21°C° 0 mm 1 mps 753 mmHg 50%
    15:00 +21°C° 0 mm 1 mps 753 mmHg 55%
    16:00 +21°C° 0 mm 1 mps 753 mmHg 61%
    17:00 +18°C° 0 mm 0 mps 753 mmHg 66%
    18:00 +18°C° 0 mm 1 mps 753 mmHg 71%
    19:00 +15°C° 0 mm 1 mps 753 mmHg 77%
    20:00 +13°C° 0 mm 1 mps 753 mmHg 83%
    21:00 +13°C° 0 mm 1 mps 753 mmHg 85%
    22:00 +13°C° 0 mm 1 mps 753 mmHg 87%
    23:00 +11°C° 0 mm 0 mps 753 mmHg 88%
    Show more